Time,TemperatureF,DewpointF,PressureIn,WindDirection,WindDirectionDegrees,WindSpeedMPH,WindSpeedGustMPH,Humidity,HourlyPrecipIn,Conditions,Clouds,dailyrainin,SoftwareType,DateUTC
2013-03-05 00:00:00,1.0,-5.0,-100.00,North,-999,-999.0,-999.0,77,-99.99,,,0.00,,2013-03-05 07:00:00,
2013-03-05 00:52:00,1.0,-5.0,-100.00,North,-999,-999.0,-999.0,77,-99.99,,,0.00,,2013-03-05 07:52:00,
2013-03-05 01:00:00,4.0,-2.0,-100.00,North,-999,-999.0,-999.0,77,-99.99,,,-99.99,,2013-03-05 08:00:00,
2013-03-05 01:52:00,4.0,-2.0,-100.00,North,-999,-999.0,-999.0,77,-99.99,,,-99.99,,2013-03-05 08:52:00,
2013-03-05 02:00:00,7.0,1.0,-100.00,North,-999,-999.0,-999.0,77,-99.99,,,0.00,,2013-03-05 09:00:00,
2013-03-05 02:52:00,7.0,1.0,-100.00,North,-999,-999.0,-999.0,77,-99.99,,,0.00,,2013-03-05 09:52:00,
2013-03-05 03:00:00,7.0,1.0,-100.00,North,-999,-999.0,-999.0,77,-99.99,,,0.00,,2013-03-05 10:00:00,
2013-03-05 04:00:00,7.0,1.0,-100.00,North,-999,-999.0,-999.0,77,-99.99,,,0.00,,2013-03-05 11:00:00,
2013-03-05 04:52:00,7.0,1.0,-100.00,North,-999,-999.0,-999.0,77,-99.99,,,0.00,,2013-03-05 11:52:00,
2013-03-05 05:00:00,7.0,1.0,-100.00,North,-999,-999.0,-999.0,77,-99.99,,,0.00,,2013-03-05 12:00:00,
2013-03-05 05:53:00,7.0,1.0,-100.00,North,-999,-999.0,-999.0,77,-99.99,,,0.00,,2013-03-05 12:53:00,
2013-03-05 06:00:00,8.0,3.0,-100.00,North,-999,-999.0,-999.0,77,-99.99,,,0.00,,2013-03-05 13:00:00,
2013-03-05 06:52:00,8.0,3.0,-100.00,North,-999,-999.0,-999.0,77,-99.99,,,0.00,,2013-03-05 13:52:00,
2013-03-05 07:00:00,6.0,0.0,-100.00,North,-999,-999.0,-999.0,77,-99.99,,,0.00,,2013-03-05 14:00:00,
2013-03-05 07:52:00,6.0,0.0,-100.00,North,-999,-999.0,-999.0,77,-99.99,,,0.00,,2013-03-05 14:52:00,
2013-03-05 08:00:00,12.0,6.0,-100.00,North,-999,-999.0,-999.0,77,-99.99,,,0.00,,2013-03-05 15:00:00,
2013-03-05 08:52:00,12.0,6.0,-100.00,North,-999,-999.0,-999.0,77,-99.99,,,0.00,,2013-03-05 15:52:00,
2013-03-05 09:00:00,20.0,14.0,-100.00,North,-999,-999.0,-999.0,77,-99.99,,,0.00,,2013-03-05 16:00:00,
2013-03-05 09:52:00,20.0,14.0,-100.00,North,-999,-999.0,-999.0,77,-99.99,,,0.00,,2013-03-05 16:52:00,
2013-03-05 10:00:00,26.0,20.0,-100.00,North,-999,-999.0,-999.0,77,-99.99,,,0.00,,2013-03-05 17:00:00,
2013-03-05 10:52:00,26.0,20.0,-100.00,North,-999,-999.0,-999.0,77,-99.99,,,0.00,,2013-03-05 17:52:00,
2013-03-05 11:00:00,31.0,25.0,-100.00,North,-999,-999.0,-999.0,77,-99.99,,,0.00,,2013-03-05 18:00:00,
2013-03-05 11:53:00,31.0,25.0,-100.00,North,-999,-999.0,-999.0,77,-99.99,,,0.00,,2013-03-05 18:53:00,
2013-03-05 12:00:00,36.0,30.0,-100.00,North,-999,-999.0,-999.0,77,-99.99,,,0.00,,2013-03-05 19:00:00,
2013-03-05 12:52:00,36.0,30.0,-100.00,North,-999,-999.0,-999.0,77,-99.99,,,0.00,,2013-03-05 19:52:00,
2013-03-05 13:00:00,40.0,33.0,-100.00,North,-999,-999.0,-999.0,77,-99.99,,,-99.99,,2013-03-05 20:00:00,
2013-03-05 13:52:00,40.0,33.0,-100.00,North,-999,-999.0,-999.0,77,-99.99,,,-99.99,,2013-03-05 20:52:00,
2013-03-05 14:00:00,40.0,34.0,-100.00,North,-999,-999.0,-999.0,77,-99.99,,,0.00,,2013-03-05 21:00:00,
2013-03-05 14:52:00,40.0,34.0,-100.00,North,-999,-999.0,-999.0,77,-99.99,,,0.00,,2013-03-05 21:52:00,
2013-03-05 15:00:00,41.0,34.0,-100.00,North,-999,-999.0,-999.0,77,-99.99,,,0.00,,2013-03-05 22:00:00,
2013-03-05 15:52:00,41.0,34.0,-100.00,North,-999,-999.0,-999.0,77,-99.99,,,0.00,,2013-03-05 22:52:00,
2013-03-05 16:00:00,35.0,28.0,-100.00,North,-999,-999.0,-999.0,77,-99.99,,,0.00,,2013-03-05 23:00:00,
2013-03-05 16:53:00,35.0,28.0,-100.00,North,-999,-999.0,-999.0,77,-99.99,,,0.00,,2013-03-05 23:53:00,
2013-03-05 17:00:00,32.0,26.0,-100.00,North,-999,-999.0,-999.0,77,-99.99,,,0.00,,2013-03-06 00:00:00,
2013-03-05 17:52:00,32.0,26.0,-100.00,North,-999,-999.0,-999.0,77,-99.99,,,0.00,,2013-03-06 00:52:00,
2013-03-05 18:00:00,28.0,22.0,-100.00,North,-999,-999.0,-999.0,77,-99.99,,,0.00,,2013-03-06 01:00:00,
2013-03-05 18:52:00,28.0,22.0,-100.00,North,-999,-999.0,-999.0,77,-99.99,,,0.00,,2013-03-06 01:52:00,
2013-03-05 19:00:00,24.0,-99.9,-100.00,North,-999,-999.0,-999.0,-999,-99.99,,,0.00,,2013-03-06 02:00:00,
2013-03-05 19:52:00,24.0,-99.9,-100.00,North,-999,-999.0,-999.0,-999,-99.99,,,0.00,,2013-03-06 02:52:00,
2013-03-05 20:00:00,22.0,16.0,-100.00,North,-999,-999.0,-999.0,77,-99.99,,,0.00,,2013-03-06 03:00:00,
2013-03-05 21:00:00,21.0,15.0,-100.00,North,-999,-999.0,-999.0,77,-99.99,,,0.00,,2013-03-06 04:00:00,
2013-03-05 21:52:00,21.0,15.0,-100.00,North,-999,-999.0,-999.0,77,-99.99,,,0.00,,2013-03-06 04:52:00,
2013-03-05 22:00:00,21.0,15.0,-100.00,North,-999,-999.0,-999.0,77,-99.99,,,0.00,,2013-03-06 05:00:00,
2013-03-05 22:52:00,21.0,15.0,-100.00,North,-999,-999.0,-999.0,77,-99.99,,,0.00,,2013-03-06 05:52:00,
2013-03-05 23:00:00,18.0,12.0,-100.00,North,-999,-999.0,-999.0,77,-99.99,,,0.00,,2013-03-06 06:00:00,
2013-03-05 23:52:00,18.0,12.0,-100.00,North,-999,-999.0,-999.0,77,-99.99,,,0.00,,2013-03-06 06:52:00,